User: anonymous   Login
Location: Montreal
(45.5087°N, 73.5540°W)
Time: 19:08:41
(UTC-05:00)
Language:

UKube-1 - Orbit

View from above orbital plane
View from above orbital plane
View from above satellite
View from above satellite

Ground track
Ground track

The orbit data is extracted from the following two-line orbital elements,

1 40074U 14037F   19049.81485955  .00000298  00000-0  43017-4 0  9996
2 40074  98.4158 205.0799 0003566 237.8814 122.2066 14.83969224249874
Epoch (UTC): 18 February 2019 19:33:23
Eccentricity: 0.0003566
inclination: 98.4158°
perigee height: 614 km
apogee height: 619 km
right ascension of ascending node: 205.0799°
argument of perigee: 237.8814°
revolutions per day: 14.83969224
mean anomaly at epoch: 122.2066°
orbit number at epoch: 24987

The dashed part of the orbit path shows where the satellite is in the earth's shadow,  

DLR